sat.trackr.live / text

‹ back to catalog

STARLINK-6160

NORAD 56382 · 2023-061J

PAYLOAD ACTIVE UNKNOWN

§ Identity

Operator
Country
US
Launch date
2023-05-04
Launch site
AFETR
Launch vehicle
Mass (kg)
RCS (m²)

Purposes: comms

External: N2YO · Heavens-Above · Gunter

§ Orbital elements

Epoch: 2026-05-24T23:22:56.196192Z

Period
94.27 min
Inclination
43.0006°
Eccentricity
0.0000737
Mean motion
15.27565902 rev/d
Perigee alt
482.6 km
Apogee alt
483.6 km
Semi-major
6,861.2 km
B*
-2.2574e-5
RAAN
127.3168°
Arg perigee
252.0600°
Mean anomaly
108.0171°
Rev number
16,841

§ Raw data

STARLINK-61601 56382U 23061J   26144.97426153 -.00000883  00000+0 -22574-4 0  99942 56382  43.0006 127.3168 0000737 252.0600 108.0171 15.27565902168419

JSON: /api/v1/satellites/56382 · /tle

For live sub-satellite position, see the globe view (requires WebGL).

§ Visibility from observer

Set your observer location to see the next 7 days of passes ≥ 10°. The values pass through the URL so the page stays shareable.

No JS? Fill the form by hand. The geolocation button needs JavaScript.